Temperature
15 15 14 14 13 13 13 12 12 12 11 11 10 10 10 9 9 9 9 8 8 8 8 7 7 7 6 6 5 5 4 4 3 4 3 3 3 2 2 2 1 1 1
15 14 14 14 13 13 12 12 12 11 11 10 10 10 9 9 9 9 8 8 8 8 7 7 7 6 6 6 5 5 4 3 3 3 3 2 2 2 1 1 1 0 0
15 14 14 13 13 12 12 12 11 11 11 10 10 10 9 9 9 8 8 8 8 7 7 7 6 6 6 5 5 4 4 3 2 2 2 2 1 1 1 0 0 -0 -0
14 14 13 13 12 12 12 11 11 11 10 10 10 9 9 9 8 8 8 8 7 7 7 6 6 6 5 5 4 4 3 2 2 1 1 1 1 0 -0 -0 -1 -1 -1
14 14 13 13 12 11 11 11 11 10 10 10 9 9 9 9 8 8 8 7 7 7 6 6 6 5 5 4 4 3 2 2 1 1 0 0 -0 -0 -1 -1 -2 -2 -2
14 13 13 12 12 11 11 10 10 10 10 9 9 9 9 8 8 8 7 7 7 6 6 6 5 5 4 4 3 2 2 1 1 0 -0 -1 -1 -1 -2 -2 -3 -3 -3
14 13 13 12 11 11 10 10 10 9 9 9 9 8 8 8 8 7 7 7 6 6 5 5 5 4 3 3 2 2 1 1 0 -0 -1 -1 -2 -2 -3 -3 -3 -4 -4
13 13 12 11 11 10 10 10 9 9 9 8 8 8 8 8 7 7 6 6 6 5 5 4 4 3 3 2 2 1 1 0 -0 -1 -1 -2 -2 -3 -3 -4 -4 -4 -4
13 13 12 11 11 10 10 9 9 8 8 8 8 8 7 7 7 6 6 5 5 5 4 4 3 3 2 1 1 1 0 -0 -1 -1 -2 -3 -3 -3 -4 -4 -5 -5 -5
13 12 12 11 10 10 9 9 8 8 8 8 7 7 7 6 6 5 5 4 4 4 3 3 2 2 1 1 0 -0 -1 -1 -2 -2 -2 -3 -3 -4 -4 -5 -5 -6 -6
13 12 11 11 10 9 9 8 8 8 7 7 7 6 6 6 5 5 4 4 3 3 3 2 2 1 0 -0 -1 -1 -1 -2 -3 -3 -3 -4 -4 -4 -5 -5 -5 -6 -6
12 11 11 10 10 9 8 8 8 7 7 6 6 5 5 5 4 4 3 3 2 2 2 1 1 0 -0 -1 -1 -2 -2 -3 -3 -3 -4 -4 -5 -5 -5 -6 -6 -6 -7
12 11 10 9 9 8 8 8 7 7 6 6 5 5 4 4 4 3 3 2 2 1 1 0 -0 -1 -1 -1 -2 -3 -3 -3 -4 -4 -4 -5 -5 -6 -6 -6 -6 -7 -7
11 10 9 9 8 8 7 7 6 6 5 5 5 4 4 3 3 3 2 2 1 1 0 -0 -1 -1 -2 -2 -3 -3 -4 -4 -4 -5 -5 -6 -6 -6 -7 -7 -7 -7 -7
10 10 9 8 8 7 7 6 6 5 5 4 4 4 3 3 2 2 1 1 0 -0 -1 -1 -1 -2 -2 -3 -3 -4 -4 -4 -5 -5 -6 -6 -7 -7 -7 -7 -8 -8 -8
10 9 8 8 7 6 6 5 5 4 4 3 3 3 2 2 1 1 1 0 -0 -1 -1 -2 -2 -3 -3 -4 -4 -4 -5 -5 -6 -6 -7 -7 -7 -8 -8 -8 -8 -8 -8
9 8 8 7 6 6 5 5 4 4 3 3 2 2 2 1 1 0 -0 -1 -1 -2 -2 -2 -3 -3 -4 -4 -5 -5 -6 -6 -6 -7 -7 -8 -8 -8 -8 -8 -9 -9 -9
8 7 7 6 6 5 5 4 4 3 3 2 2 1 1 0 0 -0 -1 -1 -2 -2 -3 -3 -4 -4 -5 -5 -5 -6 -6 -7 -7 -7 -8 -8 -8 -9 -9 -9 -9 -9 -9
7 6 6 5 5 4 4 3 3 2 2 2 1 1 0 -0 -1 -1 -2 -2 -2 -3 -3 -4 -4 -5 -5 -6 -6 -7 -7 -7 -7 -8 -8 -9 -9 -9 -9 -9 -9 -9 -10
6 5 5 5 4 4 3 3 2 2 1 1 0 -0 -1 -1 -1 -2 -2 -3 -3 -3 -4 -4 -5 -5 -6 -6 -7 -7 -7 -8 -8 -8 -9 -9 -9 -9 -10 -10 -10 -10 -10
5 5 4 4 3 3 2 2 1 1 0 -0 -0 -1 -1 -2 -2 -2 -3 -3 -4 -4 -5 -5 -6 -6 -6 -7 -7 -7 -8 -8 -8 -9 -9 -9 -9 -10 -10 -10 -10 -10 -10
4 4 3 3 2 2 1 1 0 -0 -0 -1 -1 -2 -2 -3 -3 -3 -4 -4 -4 -5 -5 -6 -6 -6 -7 -7 -7 -8 -8 -8 -9 -9 -9 -10 -10 -10 -10 -10 -10 -10 -10
3 3 3 2 1 1 0 -0 -0 -1 -1 -2 -2 -2 -3 -3 -4 -4 -4 -5 -5 -5 -6 -6 -6 -7 -7 -7 -8 -8 -8 -9 -9 -9 -10 -10 -10 -10 -10 -10 -10 -10 -10
2 2 2 1 1 0 -0 -1 -1 -2 -2 -2 -3 -3 -4 -4 -4 -5 -5 -5 -5 -6 -6 -6 -7 -7 -7 -8 -8 -8 -9 -9 -9 -10 -10 -10 -10 -10 -10 -10 -10 -10 -10
2 1 1 0 -0 -1 -1 -1 -2 -2 -3 -3 -3 -4 -4 -5 -5 -5 -5 -6 -6 -6 -6 -7 -7 -8 -8 -8 -8 -9 -9 -9 -10 -10 -10 -10 -10 -10 -11 -11 -10 -10 -10
1 0 -0 -1 -1 -1 -2 -2 -3 -3 -4 -4 -4 -4 -5 -5 -5 -6 -6 -6 -6 -7 -7 -7 -7 -8 -8 -8 -9 -9 -9 -9 -10 -10 -10 -11 -11 -11 -11 -11 -11 -11 -11
Wind_Speed
11 11 11 11 11 11 11 12 11 10 11 12 12 12 11 10 10 9 8 8 9 7 6 7 8 6 5 5 4 4 5 5 7 6 4 4 4 6 9 12 13 14 15
10 10 11 10 10 11 11 11 11 11 11 11 11 11 10 10 10 10 10 9 9 9 8 8 8 6 7 6 5 6 6 6 6 8 5 4 6 6 6 7 10 11 13
9 10 10 10 11 11 11 10 10 10 10 10 10 11 10 10 10 10 10 9 9 9 8 8 8 7 7 6 6 7 6 6 6 6 6 4 4 4 5 6 7 8 11
9 10 10 10 10 10 10 9 10 10 10 10 10 10 10 9 9 9 8 8 7 7 7 7 7 8 9 8 7 7 6 6 5 6 6 5 5 4 4 5 6 5 6
9 10 10 9 9 9 9 9 9 9 9 9 8 7 7 7 7 8 8 8 7 6 6 6 7 8 10 8 6 6 6 5 5 5 6 5 5 4 5 4 7 7 6
9 9 8 8 8 9 8 8 8 8 7 8 8 8 7 6 8 11 9 7 7 7 6 6 6 7 9 11 11 10 8 6 6 5 6 7 8 7 6 6 6 6 6
9 8 8 9 9 8 8 8 8 8 7 7 7 7 7 7 9 11 11 7 7 6 6 5 4 5 7 6 8 10 9 11 10 7 7 9 8 7 6 6 6 7 8
9 8 8 9 9 8 8 8 7 6 7 6 6 6 5 5 8 9 9 6 5 5 6 6 6 5 6 6 5 5 6 7 9 7 8 9 7 7 6 7 7 7 6
9 9 9 9 9 9 8 8 6 6 6 5 5 5 5 4 6 7 7 4 4 5 4 5 5 6 8 8 5 5 6 6 9 12 13 12 13 13 10 4 4 5 7
10 9 9 9 9 9 8 7 5 6 5 5 4 4 4 4 5 6 7 4 4 3 2 3 6 6 7 7 4 5 6 7 5 5 7 9 8 9 11 6 4 6 6
8 8 8 8 8 8 7 6 6 6 6 5 4 3 3 3 4 5 6 4 4 3 3 3 4 7 7 7 6 4 8 7 3 3 4 4 4 4 5 5 5 5 6
9 9 8 7 7 7 8 7 6 7 6 5 4 2 1 1 2 4 5 4 3 3 3 3 4 6 7 7 6 7 10 7 1 2 3 3 4 4 5 5 7 7 8
10 9 8 8 7 7 8 8 6 5 5 4 4 3 1 1 1 2 3 3 3 2 2 4 4 5 5 4 7 9 6 2 1 2 4 4 4 4 4 4 5 6 7
11 9 8 8 7 6 6 6 6 5 5 4 4 3 2 1 1 1 2 2 2 2 1 2 3 3 2 3 4 4 2 2 3 3 4 4 3 3 3 3 3 3 4
11 9 8 7 8 6 5 4 5 4 5 5 4 4 4 3 3 3 2 2 2 2 1 1 0 0 1 2 2 3 2 2 3 3 3 3 3 3 4 3 2 2 3
11 9 7 7 6 6 6 5 5 4 5 5 4 4 2 2 2 2 2 2 2 2 0 0 1 2 2 3 3 3 3 3 3 3 3 4 4 4 4 3 3 3 4
11 9 7 7 7 6 6 6 4 4 5 5 4 3 2 2 2 2 2 1 1 1 0 1 2 2 3 3 3 3 3 4 3 3 4 4 3 3 3 4 4 3 4
10 10 9 7 6 6 5 5 5 4 3 1 1 2 2 1 1 1 1 1 0 0 1 2 3 3 3 3 3 3 4 3 3 3 3 3 3 3 3 4 4 4 4
9 7 7 7 6 6 5 5 4 4 3 1 1 1 1 1 0 1 1 1 2 2 2 3 3 3 3 3 3 4 4 4 4 3 3 4 3 3 4 4 4 6 4
8 11 9 7 6 6 5 5 4 3 3 2 1 1 0 1 0 1 1 2 2 3 3 3 3 3 3 3 4 4 4 4 4 3 4 3 3 3 4 4 4 4 3
7 8 10 7 5 5 4 4 4 3 3 2 2 2 2 2 2 2 2 2 3 3 3 4 3 4 4 3 3 4 4 4 4 4 4 4 3 3 4 3 4 4 3
7 6 6 6 5 4 4 3 3 3 3 2 1 2 3 1 2 2 3 3 3 3 3 4 4 4 4 4 4 4 4 4 4 4 4 4 3 3 3 3 3 3 3
7 7 6 5 4 5 4 3 3 2 2 2 2 2 2 2 3 3 3 3 3 3 3 3 4 4 4 4 4 4 5 5 5 4 4 4 3 3 3 3 3 3 2
7 7 6 5 4 3 3 3 2 2 2 2 2 3 3 3 3 4 4 3 4 4 4 4 4 5 6 6 6 6 7 8 7 6 6 5 4 4 3 3 3 3 3
6 6 5 4 4 3 3 2 2 2 2 3 3 3 3 4 4 4 4 4 4 5 5 5 5 6 7 8 7 8 9 10 9 7 6 5 5 5 4 4 3 2 2
5 5 4 3 3 3 3 2 2 3 3 3 3 4 4 4 5 5 4 4 4 5 5 5 6 8 8 8 9 10 11 11 11 10 6 4 5 5 4 4 4 3 3
Wind_Direction
185 187 187 190 190 187 190 193 191 186 183 184 187 188 188 189 185 187 192 185 192 198 196 201 212 203 204 206 202 204 209 205 243 266 250 254 257 267 282 284 286 285 286
181 182 187 186 184 188 193 191 187 185 185 185 183 185 188 188 187 189 193 191 194 200 204 204 214 205 210 210 208 213 218 214 225 261 272 261 255 262 268 277 285 283 281
174 178 181 183 186 191 192 186 183 183 181 180 181 185 188 188 189 192 193 194 199 203 203 207 212 203 216 217 216 221 224 226 223 244 267 263 265 268 277 279 277 278 283
172 177 184 187 187 188 186 181 181 180 179 182 185 187 187 186 188 189 190 194 199 204 205 208 208 208 217 218 220 224 223 226 229 243 261 267 265 268 265 273 285 270 276
172 180 186 180 176 176 176 175 174 175 178 179 179 180 180 182 189 185 188 191 195 203 208 211 214 218 223 223 225 222 214 223 233 245 261 272 272 273 268 263 279 286 277
174 180 174 168 169 171 171 167 166 169 170 168 175 177 181 192 192 192 187 189 193 199 212 218 221 226 235 240 245 243 230 227 232 241 258 263 269 262 265 268 278 294 293
173 171 167 167 169 170 164 162 167 169 165 167 174 175 186 194 190 195 193 186 192 202 208 212 222 230 235 232 247 253 251 252 250 248 253 259 267 263 266 271 267 269 273
169 168 166 164 165 161 159 164 166 163 165 170 174 177 182 194 192 196 195 187 194 204 208 210 216 228 231 232 226 237 244 251 256 255 249 257 259 261 254 262 271 274 271
171 172 169 164 161 159 163 166 162 158 161 166 167 169 180 195 190 190 180 175 198 214 215 213 217 226 245 249 236 242 255 260 266 269 271 276 283 287 286 283 281 287 290
176 170 162 159 159 162 164 158 152 153 155 150 149 164 175 186 188 187 177 173 194 211 218 225 234 242 252 252 239 238 259 265 262 272 277 284 286 288 291 278 264 275 286
155 147 148 151 153 152 146 144 142 138 134 137 141 146 163 175 185 188 185 179 191 199 213 226 238 254 260 261 263 246 263 277 255 258 272 277 281 280 278 272 254 247 265
138 138 141 142 140 137 135 134 135 138 138 140 139 133 134 154 171 193 199 203 195 191 217 225 238 260 267 271 275 279 287 297 286 277 277 274 275 274 271 271 269 259 254
134 136 135 130 129 135 139 140 138 140 144 149 151 162 165 148 200 209 210 218 224 214 225 250 263 270 275 273 281 290 299 296 273 273 273 270 264 262 270 281 284 284 280
136 136 135 133 129 125 129 139 145 153 153 155 163 172 172 171 205 208 207 216 239 248 239 257 276 288 299 301 299 302 296 263 260 257 267 269 273 277 278 277 280 296 299
134 134 133 132 134 128 120 129 143 160 168 168 178 174 173 202 225 216 197 197 203 208 166 107 66 316 296 294 290 285 280 284 284 275 277 285 288 289 291 286 273 280 279
136 137 137 135 132 131 125 100 85 109 123 131 146 155 183 205 208 213 235 249 257 246 122 176 242 253 262 270 276 283 279 273 269 271 274 276 281 284 292 294 281 275 282
140 140 137 137 137 137 137 135 122 85 89 100 113 122 130 157 176 202 222 234 246 216 143 230 249 254 261 264 265 266 267 271 268 269 274 275 277 282 288 291 292 289 287
131 135 137 139 139 140 140 139 140 140 130 81 81 105 117 135 170 202 205 98 266 261 232 237 247 252 255 259 262 265 270 275 271 269 269 269 269 274 282 285 285 282 287
129 133 132 132 132 133 133 132 134 138 143 144 83 44 82 81 77 215 166 173 212 237 245 247 247 249 253 255 259 262 264 267 269 266 266 267 265 263 269 275 281 291 291
125 131 131 131 130 131 134 138 142 146 153 165 188 214 241 37 222 248 235 218 223 237 242 248 252 252 251 250 255 259 264 266 266 263 263 264 261 257 262 266 270 274 275
125 130 128 125 130 137 142 148 153 159 172 189 216 234 235 226 226 236 242 240 236 240 245 248 250 252 252 250 249 253 257 261 258 254 256 259 258 259 258 259 265 265 271
126 128 129 131 133 138 143 150 155 163 178 195 229 258 259 259 239 245 251 256 253 246 244 244 248 244 239 241 245 249 252 256 257 253 253 253 251 254 255 256 262 268 267
124 124 123 126 131 141 136 142 154 169 188 205 218 238 250 247 246 247 251 256 253 255 256 250 248 250 253 256 252 239 242 248 248 243 244 247 248 250 247 249 252 262 258
126 129 132 134 135 143 151 160 170 185 200 214 227 237 243 246 251 255 255 256 257 258 257 253 252 254 257 264 266 260 257 258 255 244 233 233 238 241 237 236 239 245 243
124 129 135 143 151 157 162 172 186 198 214 227 234 243 247 250 255 259 258 258 260 262 261 260 263 263 262 261 265 267 267 268 266 251 229 221 226 224 222 222 224 228 219
122 128 136 145 155 163 172 187 205 215 226 239 243 245 251 256 260 262 261 258 258 260 263 263 261 263 266 267 266 268 270 268 265 262 237 209 212 216 211 214 212 210 199
Height
1439 1443 1447 1451 1455 1459 1464 1468 1472 1476 1479 1482 1485 1488 1491 1494 1497 1499 1501 1502 1503 1505 1506 1506 1507 1507 1506 1506 1505 1504 1503 1501 1497 1494 1494 1493 1491 1489 1487 1484 1481 1478 1475
1435 1439 1442 1446 1450 1454 1458 1463 1467 1470 1474 1477 1480 1483 1485 1488 1491 1493 1495 1496 1498 1499 1500 1501 1501 1501 1500 1500 1499 1498 1497 1495 1492 1488 1487 1486 1485 1483 1480 1477 1475 1472 1469
1432 1435 1438 1442 1446 1449 1454 1458 1462 1465 1468 1471 1474 1477 1480 1482 1485 1487 1489 1491 1492 1493 1494 1494 1495 1495 1494 1494 1493 1492 1490 1489 1486 1483 1480 1480 1478 1476 1473 1470 1468 1465 1462
1428 1431 1434 1438 1441 1445 1449 1453 1456 1460 1463 1466 1469 1472 1474 1477 1479 1481 1483 1484 1486 1487 1488 1488 1488 1488 1488 1487 1486 1485 1484 1482 1480 1477 1475 1473 1471 1469 1466 1463 1459 1457 1454
1424 1427 1430 1434 1437 1441 1445 1448 1452 1455 1458 1461 1464 1466 1469 1471 1473 1475 1477 1479 1480 1481 1481 1482 1482 1482 1481 1481 1480 1479 1478 1476 1474 1471 1469 1466 1464 1462 1459 1456 1452 1448 1445
1420 1423 1427 1430 1433 1437 1440 1444 1447 1450 1453 1456 1459 1461 1463 1466 1468 1470 1471 1472 1473 1474 1475 1475 1475 1475 1475 1474 1473 1472 1471 1470 1467 1465 1463 1460 1458 1456 1453 1449 1446 1442 1437
1417 1420 1423 1426 1429 1433 1436 1440 1443 1445 1448 1451 1454 1456 1459 1461 1463 1464 1465 1466 1467 1468 1468 1469 1469 1469 1468 1467 1467 1466 1465 1463 1462 1460 1456 1454 1452 1449 1446 1443 1440 1436 1433
1413 1416 1419 1422 1426 1429 1432 1435 1438 1441 1444 1447 1449 1451 1454 1456 1457 1459 1460 1460 1461 1461 1462 1462 1462 1462 1462 1461 1459 1458 1457 1456 1455 1453 1450 1448 1446 1443 1441 1438 1434 1430 1427
1409 1412 1415 1419 1422 1425 1428 1431 1434 1437 1440 1442 1445 1446 1448 1450 1452 1453 1454 1454 1454 1455 1456 1456 1456 1456 1455 1454 1453 1451 1450 1449 1448 1446 1444 1442 1440 1437 1435 1432 1428 1425 1420
1405 1409 1412 1415 1418 1421 1424 1427 1430 1433 1436 1438 1440 1442 1443 1445 1446 1447 1448 1448 1449 1449 1450 1450 1450 1449 1449 1448 1446 1445 1443 1441 1440 1438 1437 1435 1433 1431 1429 1427 1423 1420 1415
1402 1406 1409 1412 1415 1418 1421 1424 1427 1429 1431 1433 1435 1437 1438 1440 1441 1442 1442 1443 1443 1443 1443 1444 1444 1443 1443 1442 1441 1439 1437 1435 1433 1431 1430 1428 1426 1424 1423 1420 1418 1415 1411
1399 1402 1406 1409 1412 1415 1417 1420 1423 1425 1427 1429 1430 1432 1434 1435 1436 1437 1437 1438 1438 1438 1438 1438 1438 1437 1437 1436 1434 1433 1431 1429 1427 1425 1423 1422 1420 1418 1416 1414 1412 1409 1407
1396 1399 1402 1406 1409 1411 1414 1416 1419 1421 1423 1424 1426 1427 1429 1430 1431 1432 1433 1433 1433 1433 1433 1433 1432 1431 1431 1430 1428 1427 1425 1423 1421 1420 1418 1416 1414 1412 1410 1408 1406 1403 1401
1392 1396 1399 1402 1405 1408 1411 1413 1415 1417 1418 1420 1422 1423 1424 1425 1426 1427 1427 1428 1428 1428 1428 1427 1427 1426 1425 1424 1423 1421 1420 1418 1416 1414 1412 1411 1409 1407 1405 1402 1400 1398 1395
1389 1393 1396 1399 1402 1405 1407 1410 1412 1413 1415 1417 1418 1419 1420 1421 1422 1423 1423 1423 1423 1423 1422 1421 1421 1420 1419 1418 1417 1416 1414 1413 1411 1409 1407 1405 1403 1402 1400 1398 1396 1394 1391
1385 1389 1392 1396 1399 1401 1404 1406 1408 1411 1412 1414 1415 1416 1416 1417 1418 1418 1418 1418 1418 1418 1417 1416 1415 1415 1414 1413 1411 1410 1409 1407 1406 1404 1402 1401 1399 1397 1395 1394 1392 1390 1388
1383 1386 1389 1393 1396 1398 1401 1403 1405 1407 1409 1410 1411 1412 1413 1413 1413 1414 1414 1414 1414 1413 1412 1411 1411 1410 1409 1408 1406 1405 1404 1402 1401 1399 1398 1396 1395 1393 1392 1390 1389 1387 1385
1380 1384 1387 1390 1393 1396 1398 1400 1402 1403 1405 1406 1408 1408 1409 1409 1409 1410 1409 1409 1408 1408 1407 1407 1406 1405 1404 1403 1401 1400 1399 1397 1396 1394 1393 1392 1391 1389 1388 1387 1385 1384 1382
1378 1381 1385 1388 1390 1393 1395 1397 1399 1400 1402 1402 1403 1404 1405 1405 1405 1405 1405 1404 1403 1403 1402 1402 1401 1400 1398 1397 1396 1395 1394 1392 1391 1390 1389 1388 1387 1386 1384 1383 1382 1381 1380
1376 1380 1382 1385 1388 1390 1392 1394 1395 1396 1397 1398 1399 1400 1400 1400 1400 1400 1400 1399 1399 1398 1397 1396 1395 1394 1393 1392 1391 1390 1389 1387 1386 1385 1385 1384 1383 1382 1381 1380 1379 1378 1377
1374 1377 1380 1383 1385 1387 1389 1390 1391 1393 1394 1394 1395 1396 1396 1396 1395 1395 1395 1395 1394 1393 1392 1391 1390 1389 1388 1387 1386 1384 1383 1383 1382 1381 1380 1380 1379 1378 1377 1377 1376 1375 1375
1372 1375 1377 1380 1382 1384 1385 1387 1388 1389 1390 1390 1391 1391 1391 1391 1391 1390 1390 1389 1389 1388 1387 1386 1385 1384 1383 1382 1380 1379 1378 1378 1377 1377 1376 1376 1375 1374 1374 1374 1373 1373 1372
1370 1373 1375 1377 1379 1381 1382 1383 1384 1385 1386 1386 1386 1387 1387 1387 1386 1386 1385 1384 1384 1383 1382 1380 1379 1378 1377 1376 1375 1374 1373 1373 1372 1372 1372 1372 1371 1371 1371 1371 1371 1370 1370
1368 1370 1372 1374 1376 1377 1378 1379 1380 1381 1381 1382 1382 1382 1382 1382 1381 1381 1380 1379 1378 1377 1376 1375 1373 1372 1371 1370 1369 1369 1368 1368 1367 1367 1367 1368 1368 1368 1368 1368 1368 1368 1368
1366 1368 1370 1371 1373 1374 1374 1375 1376 1376 1377 1377 1377 1377 1377 1377 1376 1375 1374 1373 1372 1371 1370 1369 1368 1367 1366 1365 1364 1363 1363 1362 1362 1363 1363 1363 1364 1364 1364 1365 1365 1366 1366
1363 1365 1367 1368 1369 1370 1370 1371 1371 1372 1372 1372 1372 1372 1371 1371 1370 1369 1368 1367 1366 1365 1364 1363 1362 1361 1360 1359 1358 1358 1357 1357 1358 1358 1359 1359 1360 1360 1361 1362 1363 1364 1364